Location: ????????
(37.6846°N, 24.0673°E)
Time: 12:12:34
(UTC+00:00)

Cosmos 1869 Rocket - Pass Details

Date: 14 July 2020
Orbit: 606 x 632 km, 82.5° (Epoch: 10 August)

Event Time Altitude Azimuth Distance (km) Brightness Sun altitude
Exits shadow 00:27:34 42° 306° (NW) 873 4.3 -24.5°
Drops below altitude 10° 00:31:06 10° 354° (N) 1,964 6.8 -24.2°
Sets 00:33:25 0° 1° (N) 2,875 7.9 -23.9°
